Flag for India Weather past 2 weeks in Kolkata, West Bengal, India

Now
93 °F

Scattered clouds.


Feels Like: 107 °F
Forecast: 78 / 100 °F
Wind: 15 mph from Southwest

Location: Calcutta / Dum Dum

Current Time: Apr 1, 2015 at 3:33:50 PM

Latest Report: Apr 1, 2015 at 2:50 PM


Visibility: 3 mi

Pressure: 29.68 "Hg

Humidity: 59%

Dew point: 77 °F

Location of KolkataLocation

Historic Weather in Kolkata — Graph

°F

Kolkata temperature yesterday

Maximum temperature yesterday: 88 °F (at 1:50 PM)
Minimum temperature yesterday: 73 °F (at 12:20 AM)
Average temperature yesterday: 80 °F

Past Weeks' High & Low Weather Summary

 TemperatureHumidityPressure
High97 °F (Mar 23, 1:50 PM)100% (Mar 25, 6:20 AM)30.01 "Hg (Mar 25, 6:20 AM)
Low68 °F (Mar 21, 5:20 AM)25% (Mar 22, 1:20 PM)29.65 "Hg (Mar 30, 4:20 PM)
Average83 °F64%29.85 "Hg
* Reported Mar 17 1:50 PM — Apr 1 2:20 PM, Kolkata, Weather by CustomWeather, © 2015

Note: Actual official high and low records may vary slightly from our data, if they occured in-between our weather recording intervals... More about our weather records

Advertising

Kolkata weather history for previous 24 hours

 ConditionsComfort  
Time TempWeatherWind HumidityBarometerVisibility
2:20 PM
Wed, Apr 1
93 °FScattered clouds.14 mph59%29.71 "Hg3 mi
1:50 PM93 °FHaze.14 mph59%29.71 "Hg2 mi
1:20 PM93 °FScattered clouds.13 mph56%29.74 "Hg2 mi
12:50 PM93 °FScattered clouds.13 mph56%29.74 "Hg2 mi
12:20 PM93 °FScattered clouds.13 mph56%29.77 "Hg2 mi
11:50 AM93 °FHaze.12 mph56%29.80 "Hg2 mi
11:20 AM91 °FHaze.13 mph63%29.80 "Hg2 mi
10:20 AM88 °FPartly sunny.12 mph70%29.83 "Hg2 mi
9:50 AM88 °FPartly sunny.12 mph70%29.83 "Hg1 mi
9:20 AM86 °FPartly sunny.10 mph75%29.83 "Hg1 mi
8:50 AM86 °FPartly sunny.12 mph75%29.83 "Hg1 mi
8:20 AM84 °FFog.13 mph79%29.83 "Hg1 mi
7:50 AM82 °FFog.13 mph84%29.83 "Hg1 mi
7:20 AM81 °FFog.12 mph84%29.80 "Hg1 mi
6:50 AM81 °FFog.9 mph84%29.80 "Hg1 mi
6:20 AM79 °FFog.9 mph89%29.77 "Hg1 mi
5:50 AM79 °FFog.9 mph89%29.77 "Hg1 mi
5:20 AM77 °FFog.9 mph89%29.77 "Hg1 mi
4:50 AM77 °FFog.7 mph89%29.74 "Hg1 mi
4:20 AM77 °FFog.8 mph89%29.74 "Hg1 mi
3:50 AM77 °FFog.9 mph89%29.74 "Hg1 mi
3:20 AM77 °FFog.6 mph89%29.74 "Hg1 mi
2:50 AM77 °FFog.5 mph89%29.74 "Hg1 mi
2:20 AM77 °FFog.6 mph89%29.77 "Hg1 mi
1:50 AM77 °FFog.3 mph89%29.77 "Hg1 mi
1:20 AM79 °FFog.3 mph84%29.77 "Hg1 mi
12:50 AM79 °FFog.3 mph84%29.77 "Hg1 mi
12:20 AM79 °FFog.3 mph84%29.77 "Hg1 mi
11:50 PM
Tue, Mar 31
79 °FFog.3 mph84%29.80 "Hg1 mi
11:20 PM79 °FFog.3 mph84%29.80 "Hg1 mi
10:50 PM79 °FFog.3 mph84%29.80 "Hg1 mi
10:20 PM79 °FFog.3 mph84%29.83 "Hg1 mi
9:50 PM79 °FFog.No wind84%29.83 "Hg1 mi
9:20 PM79 °FFog.No wind84%29.83 "Hg1 mi
8:50 PM81 °FHaze.No wind79%29.80 "Hg1 mi
8:20 PM81 °FHaze.3 mph74%29.80 "Hg1 mi
7:20 PM82 °FHaze.3 mph70%29.77 "Hg2 mi
6:50 PM82 °FHaze.3 mph70%29.77 "Hg2 mi
6:20 PM84 °FHaze.3 mph66%29.74 "Hg2 mi
5:50 PM86 °FHaze.3 mph59%29.74 "Hg2 mi
5:20 PM86 °FHaze.3 mph59%29.74 "Hg2 mi
4:50 PM88 °FHaze.5 mph55%29.74 "Hg2 mi
4:20 PM88 °FHaze.5 mph55%29.74 "Hg3 mi
3:50 PM88 °FHaze.5 mph55%29.74 "Hg3 mi
3:20 PM88 °FHaze.7 mph55%29.77 "Hg3 mi
Weather by CustomWeather, © 2015

See weather overviewHow to use our weather pages